FW3124 Weather Reports


time (UTC)temp
F
wind
direction
speed
knots
gust
knots
rain 1hr
in
rain 24hr
in
rain mn
in
humidity
%
barometer
mb
20260507174541 55 264 0.0 4.3 0.01 0.03 0.03 62 1011.4
20260507173055 55 264 1.7 3.5 0.01 0.03 0.03 65 1011.2
20260507171541 54 264 0.9 2.6 0.01 0.03 0.03 67 1011.3
20260507170049 54 264 1.7 6.1 0.01 0.03 0.03 65 1011.3
20260507164539 55 264 2.6 7.8 0.00 0.02 0.02 57 1011.8
20260507163038 55 264 3.5 9.6 0.00 0.02 0.02 55 1011.9
20260507161544 55 264 3.5 7.0 0.00 0.02 0.02 58 1012.0
20260507160040 55 264 3.5 5.2 0.00 0.02 0.02 56 1012.5
20260507154542 56 264 1.7 7.8 0.00 0.02 0.02 57 1012.4
20260507153037 56 264 6.1 9.6 0.00 0.02 0.02 56 1012.1
20260507151535 56 264 5.2 9.6 0.00 0.02 0.02 59 1012.1
20260507150035 56 264 4.3 8.7 0.00 0.02 0.02 63 1012.2
20260507144532 0 0.0 0.0 0.00 0.02 0.02 1012.2
20260507143028 0 0.0 0.0 0.00 0.02 0.02 1012.5
20260507141526 0 0.0 0.0 0.00 0.02 0.02 1012.5
20260507140019 0 0.0 0.0 0.00 0.02 0.02 1012.8
20260507134515 0 0.0 0.0 0.00 0.02 0.02 1012.6
20260507133010 0 0.0 0.0 0.00 0.02 0.02 1012.6
20260507131508 0 0.0 0.0 0.00 0.02 0.02 1012.6
20260507130002 0 0.0 0.0 0.00 0.02 0.02 1012.3
20260507124601 0 0.0 0.0 0.00 0.02 0.02 1012.3
20260507123056 0 0.0 0.0 0.00 0.02 0.02 1012.5
20260507121554 0 0.0 0.0 0.00 0.02 0.02 1012.2
20260507120044 0 0.0 0.0 0.00 0.02 0.02 1012.2
20260507114540 0 0.0 0.0 0.00 0.02 0.02 1011.9
20260507113136 0 0.0 0.0 0.00 0.02 0.02 1011.9
20260507111532 0 0.0 0.0 0.00 0.02 0.02 1011.6
20260507110027 0 0.0 0.0 0.00 0.02 0.02 1011.5
20260507104523 0 0.0 0.0 0.00 0.02 0.02 1011.8
20260507103019 0 0.0 0.0 0.00 0.02 0.02 1011.6
20260507101517 0 0.0 0.0 0.00 0.02 0.02 1011.2
20260507100014 0 0.0 0.0 0.00 0.02 0.02 1011.2
20260507094508 0 0.0 0.0 0.00 0.02 0.02 1011.1
20260507093008 53 255 0.0 1.7 0.00 0.02 0.02 69 1011.5
20260507091501 55 264 0.0 4.3 0.00 0.02 0.02 70 1011.2
20260507084606 56 264 2.6 6.1 0.00 0.02 0.02 69 1011.2
20260507083056 56 264 2.6 6.1 0.00 0.02 0.02 67 1010.8
20260507081558 56 264 4.3 7.0 0.00 0.02 0.02 67 1010.7
20260507080055 57 264 0.9 8.7 0.00 0.02 0.02 67 1011.3
20260507074551 57 264 2.6 7.8 0.00 0.02 0.02 63 1010.7
20260507073046 58 264 1.7 10.4 0.00 0.02 0.02 59 1010.5
20260507071547 58 264 2.6 8.7 0.00 0.02 0.02 53 1010.0
20260507070100 58 264 2.6 7.8 0.00 0.02 0.02 49 1010.3
20260507064549 59 264 1.7 4.3 0.00 0.02 0.02 47 1010.1
20260507063039 59 264 4.3 9.6 0.00 0.02 0.02 48 1010.0
20260507061536 60 264 4.3 7.8 0.01 0.02 0.02 48 1010.2
20260507060033 61 264 1.7 7.0 0.01 0.02 0.02 44 1010.1
20260507054529 61 264 1.7 4.3 0.02 0.02 0.02 45 1008.7
20260507053028 61 264 1.7 8.7 0.02 0.02 0.02 48 1008.9
20260507051524 63 265 5.2 11.3 0.01 0.01 0.01 51 1008.8
20260507050037 65 267 2.6 6.1 0.01 0.01 0.01 48 1009.6
20260507044517 65 267 1.7 6.1 0.00 0.00 0.00 49 1009.9
20260507043013 66 267 0.0 0.9 0.00 0.00 0.00 55 1009.4
20260507041512 66 267 0.0 0.9 0.00 0.00 0.00 59 1009.3
20260507040005 67 267 0.0 0.9 0.00 0.00 0.00 60 1009.3
20260507034503 67 267 0.0 4.3 0.00 0.00 0.00 62 1009.6
20260507033058 67 267 0.0 2.6 0.00 0.00 0.00 63 1009.3
20260507031553 67 267 0.0 0.9 0.00 0.00 0.00 64 1009.0
20260507030048 67 267 0.0 0.9 0.00 0.00 0.00 63 1009.1
20260507024549 67 267 0.0 2.6 0.00 0.00 0.00 62 1009.3
20260507023039 66 267 0.0 2.6 0.00 0.00 0.00 60 1008.8
20260507021537 66 267 0.0 2.6 0.00 0.00 0.00 59 1008.4
20260507020029 66 267 0.0 0.9 0.00 0.00 0.00 63 1008.5
20260507014528 66 267 0.0 2.6 0.00 0.00 0.00 64 1008.9
20260507013022 66 267 0.0 1.7 0.00 0.00 0.00 66 1008.9
20260507011522 66 267 0.0 0.9 0.00 0.00 0.00 66 1008.9
20260507010020 67 267 0.0 0.9 0.00 0.00 0.00 68 1008.9
20260507004507 67 267 0.0 1.7 0.00 0.00 0.00 68 1008.6
20260507003003 67 267 0.0 1.7 0.00 0.00 0.00 71 1008.7
20260507001607 68 267 0.0 1.7 0.00 0.00 0.00 73 1008.5
20260507000122 69 267 0.0 2.6 0.00 0.00 0.00 74 1008.5
20260506234607 69 267 0.0 2.6 0.00 0.00 0.00 74 1008.6
20260506233050 70 267 0.0 9.6 0.00 0.00 0.00 74 1008.7
20260506231543 71 267 0.9 5.2 0.00 0.00 0.00 74 1007.9
20260506230036 72 267 1.7 7.8 0.00 0.00 0.00 73 1008.2
20260506224534 72 269 0.9 4.3 0.00 0.00 0.00 73 1008.2
20260506223028 72 269 0.9 5.2 0.00 0.00 0.00 73 1008.3
20260506221523 73 269 0.9 4.3 0.00 0.00 0.00 73 1008.3
20260506220019 73 269 1.7 5.2 0.00 0.00 0.00 72 1008.4
20260506214514 73 269 1.7 5.2 0.00 0.00 0.00 71 1008.2
20260506213010 73 269 0.9 5.2 0.00 0.00 0.00 72 1008.2
20260506211506 73 269 0.9 6.1 0.00 0.00 0.00 72 1008.2
20260506210001 73 266 1.7 7.0 0.00 0.00 0.00 72 1008.4
20260506204557 73 266 0.9 5.2 0.00 0.00 0.00 72 1008.2
20260506203053 73 268 2.6 7.0 0.00 0.00 0.00 72 1008.2
20260506201550 72 269 0.9 5.2 0.00 0.00 0.00 73 1008.3
20260506200045 71 269 1.7 7.8 0.00 0.00 0.00 73 1008.2
20260506194542 69 269 1.7 7.0 0.00 0.00 0.00 74 1008.3
20260506193045 68 269 0.9 6.1 0.00 0.00 0.00 74 1008.5
20260506191530 68 269 1.7 5.2 0.00 0.00 0.00 74 1008.6
20260506190024 68 269 2.6 7.0 0.00 0.00 0.00 74 1008.8
20260506184524 68 269 1.7 7.0 0.00 0.00 0.00 74 1008.9
20260506183017 68 269 0.9 7.0 0.00 0.00 0.00 72 1009.1
20260506181530 68 269 1.7 5.2 0.00 0.00 0.00 72 1009.4
20260506180008 67 269 0.9 6.1 0.00 0.00 0.00 73 1009.7